Location: Forest
(37.3641°N, 79.2902°W)
Time: 02:13:08
(UTC+00:00)

Courier 1B Rocket - Visible Passes

Search period start: 11 December 2025 00:00
Search period end: 21 December 2025 00:00
Orbit: 920 x 1201 km, 28.3° (Epoch: 10 December)

Date Brightness Start Highest point End Pass type
(mag) Time Alt. Az. Time Alt. Az. Time Alt. Az.
11 Dec 6.8 09:58:36 16° SSW 09:58:36 16° SSW 10:01:43 10° S visible
12 Dec 7.3 09:01:15 12° SSE 09:01:15 12° SSE 09:01:56 10° SSE visible
14 Dec 7.6 01:12:14 10° S 01:12:29 11° S 01:12:29 11° S visible
16 Dec 7.2 01:01:09 10° SSW 01:04:08 18° S 01:04:08 18° S visible
17 Dec 7.1 00:01:23 10° S 00:05:22 15° SSE 00:06:46 14° SE visible
17 Dec 7.5 01:51:31 10° SW 01:53:08 16° SW 01:53:08 16° SW visible
18 Dec 6.7 00:50:46 10° SSW 00:55:45 25° S 00:55:45 25° S visible
18 Dec 6.9 23:50:26 10° SSW 23:55:47 20° SSE 23:58:21 17° SE visible
19 Dec 7.1 01:41:43 10° SW 01:44:42 23° SW 01:44:42 23° SW visible
19 Dec 7.3 22:50:46 10° S 22:54:40 15° SSE 22:58:36 10° ESE visible
20 Dec 6.4 00:40:47 10° SW 00:47:17 32° SSE 00:47:17 32° SSE visible
20 Dec 7.9 02:33:21 10° WSW 02:33:39 11° WSW 02:33:39 11° WSW visible
20 Dec 6.7 23:40:08 10° SSW 23:46:14 26° SSE 23:49:51 19° ESE visible
